Flag for India Weather past 2 weeks in Vasai-Virar, Maharashtra, India

Now
88 °F

Scattered clouds.


Feels Like: 102 °F
Forecast: 83 / 92 °F
Wind: 3 mph from Southwest

Location: Bombay / Santacruz

Current Time: May 30, 2015 at 7:07:18 AM

Latest Report: May 30, 2015 at 6:40 AM


Visibility: 2 mi

Pressure: 29.80 "Hg

Humidity: 75%

Dew point: 79 °F

Location of Vasai-VirarLocation

Historic Weather in Vasai-Virar — Graph

°F

Vasai-Virar temperature yesterday

Maximum temperature yesterday: 93 °F (at 10:40 AM)
Minimum temperature yesterday: 86 °F (at 2:40 AM)
Average temperature yesterday: 89 °F

Past Weeks' High & Low Weather Summary

 TemperatureHumidityPressure
High95 °F (May 15, 10:40 AM)89% (May 16, 12:40 AM)29.86 "Hg (May 16, 12:40 AM)
Low84 °F (May 15, 5:40 AM)47% (May 15, 10:40 AM)29.62 "Hg (May 16, 3:40 PM)
Average89 °F73%29.75 "Hg
* Reported May 15 5:40 AM — May 30 5:40 AM, Vasai-Virar, Weather by CustomWeather, © 2015

Note: Actual official high and low records may vary slightly from our data, if they occured in-between our weather recording intervals... More about our weather records

Advertising

Vasai-Virar weather history for previous 24 hours

 ConditionsComfort  
Time TempWeatherWind HumidityBarometerVisibility
5:40 AM
Sat, May 30
88 °FPassing clouds.6 mph79%29.77 "Hg2 mi
5:10 AM88 °FPassing clouds.9 mph75%29.77 "Hg2 mi
4:40 AM88 °FPassing clouds.7 mph75%29.77 "Hg2 mi
4:10 AM88 °FPassing clouds.9 mph75%29.77 "Hg2 mi
3:40 AM88 °FPassing clouds.7 mph75%29.77 "Hg2 mi
3:10 AM88 °FPassing clouds.6 mph75%29.77 "Hg2 mi
2:40 AM88 °FPassing clouds.7 mph75%29.77 "Hg2 mi
2:10 AM88 °FPassing clouds.9 mph75%29.77 "Hg2 mi
1:40 AM88 °FPassing clouds.6 mph75%29.77 "Hg2 mi
1:10 AM88 °FPassing clouds.9 mph75%29.77 "Hg2 mi
12:40 AM88 °FPassing clouds.10 mph75%29.77 "Hg2 mi
12:10 AM88 °FPassing clouds.8 mph75%29.77 "Hg2 mi
11:10 PM
Fri, May 29
88 °FPassing clouds.9 mph75%29.80 "Hg2 mi
10:40 PM88 °FPassing clouds.8 mph75%29.77 "Hg2 mi
10:10 PM88 °FPassing clouds.10 mph75%29.80 "Hg2 mi
9:40 PM88 °FPassing clouds.9 mph75%29.77 "Hg2 mi
9:10 PM88 °FPassing clouds.10 mph75%29.77 "Hg2 mi
8:40 PM90 °FPassing clouds.9 mph71%29.77 "Hg2 mi
8:10 PM90 °FPassing clouds.9 mph71%29.74 "Hg2 mi
7:40 PM88 °FScattered clouds.14 mph75%29.74 "Hg2 mi
7:10 PM90 °FScattered clouds.14 mph71%29.74 "Hg3 mi
6:40 PM90 °FScattered clouds.12 mph71%29.71 "Hg3 mi
6:10 PM90 °FScattered clouds.9 mph75%29.71 "Hg3 mi
5:40 PM91 °FScattered clouds.15 mph67%29.71 "Hg3 mi
5:10 PM90 °FScattered clouds.13 mph71%29.71 "Hg3 mi
4:40 PM91 °FScattered clouds.10 mph71%29.71 "Hg3 mi
4:10 PM91 °FScattered clouds.12 mph71%29.71 "Hg3 mi
3:40 PM93 °FScattered clouds.12 mph63%29.71 "Hg3 mi
3:10 PM91 °FScattered clouds.14 mph67%29.71 "Hg3 mi
2:40 PM93 °FScattered clouds.14 mph63%29.71 "Hg3 mi
1:40 PM91 °FPassing clouds.8 mph67%29.74 "Hg4 mi
1:10 PM91 °FPassing clouds.10 mph67%29.74 "Hg4 mi
12:40 PM91 °FPassing clouds.9 mph67%29.74 "Hg4 mi
12:10 PM93 °FHaze.14 mph63%29.74 "Hg3 mi
11:40 AM91 °FHaze.12 mph67%29.74 "Hg3 mi
11:10 AM91 °FScattered clouds.10 mph67%29.77 "Hg3 mi
10:40 AM93 °FScattered clouds.12 mph63%29.77 "Hg3 mi
10:10 AM91 °FScattered clouds.10 mph67%29.77 "Hg3 mi
9:40 AM90 °FScattered clouds.7 mph71%29.77 "Hg3 mi
9:10 AM90 °FScattered clouds.6 mph67%29.77 "Hg3 mi
8:40 AM90 °FScattered clouds.8 mph67%29.77 "Hg3 mi
8:10 AM88 °FScattered clouds.6 mph70%29.74 "Hg3 mi
7:40 AM88 °FScattered clouds.3 mph75%29.74 "Hg3 mi
7:10 AM88 °FScattered clouds.No wind75%29.74 "Hg3 mi
Weather by CustomWeather, © 2015

See weather overviewHow to use our weather pages